Hourly Data Report for July 06, 2021

ALGONQUIN PARK EAST GATE
ONTARIO
Current Station Operator: ECCC - MSC

45°32'00.000" N
78°16'00.000" W
397.00 m
6080192
71581
TNK

Download Data

Hourly Data (July 2021)
Hourly Data Report for July 6, 2021
TIME
LST
Temp Definition
°C
Dew Point Definition
°C
Rel Hum Definition
%
Precip. Amount Definition
mm

Wind Dir Definition
10's deg

Wind Spd Definition
km/h
Visibility Definition
km
Stn Press Definition
kPa
Hmdx Definition


Wind Chill Definition


Weather Definition


00:00 18.2 17.7 97 0.0 27 2   96.30     LegendNANA
01:00 19.0 18.5 97 0.0 25 4   96.27     LegendNANA
02:00 17.7 17.3 97 0.0   0   96.21     LegendNANA
03:00 18.4 18.1 98 0.0 26 4   96.26     LegendNANA
04:00 18.7 18.3 98 0.0 25 4   96.31     LegendNANA
05:00 19.3 19.0 98 0.0 27 3   96.34     LegendNANA
06:00 19.9 19.0 95 0.0 27 4   96.38     LegendNANA
07:00 20.2 19.1 93 0.0 28 3   96.43 27   LegendNANA
08:00 21.2 19.3 89 0.0 27 3   96.46 28   LegendNANA
09:00 22.2 19.9 87 0.0 27 4   96.48 30   LegendNANA
10:00 22.4 19.4 83 0.0 27 5   96.50 29   LegendNANA
11:00 24.7 19.0 70 0.0 25 7   96.49 31   LegendNANA
12:00 25.5 17.6 62 0.0 26 8   96.49 31   LegendNANA
13:00 25.8 16.9 58 0.0 28 5   96.50 31   LegendNANA
14:00 25.5 16.4 57 0.0 30 6   96.51 30   LegendNANA
15:00 26.6 15.6 51 0.0 29 8   96.51 31   LegendNANA
16:00 25.7 16.2 56 0.0 32 5   96.55 30   LegendNANA
17:00 25.2 15.9 56 0.0 34 7   96.58 30   LegendNANA
18:00 23.6 15.9 62 0.0 32 3   96.60 28   LegendNANA
19:00 22.2 15.3 65 0.0 31 3   96.63 26   LegendNANA
20:00 20.5 15.0 71 0.0 2 6   96.70     LegendNANA
21:00 18.6 12.7 68 0.0 35 5   96.81     LegendNANA
22:00 16.6 11.8 73 0.0 35 2   96.87     LegendNANA
23:00 16.0 11.2 73 0.0 4 3   96.91     LegendNANA

Notes on Data Quality.

Legend

  • E = Estimated
  • M = Missing
  • NA = Not Available*
  • [empty] = Indicates an unobserved value
Date modified: